Retour au catalogue

COSMOS 249 DEB

ActifLEO
NORAD 3609·DEBRIS·🇷🇺 Russia

Lancé Oct 20, 1968 depuis Baikonur Cosmodrome

Loading…

Prochains Passages (prochaines 24 heures)

TLE

FraisSource: Space-Track

Époque: Sep 14, 2026, 11:19 UTC

1 03609U 68091AB  26257.47174452  .00000639  00000-0  14289-3 0  9993
2 03609  62.2714 263.0000 0725746 156.2823 207.3516 13.66575739717091

Suivez COSMOS 249 DEB en temps réel avec AllMySat

Download on the App Store